GW4332 Weather Reports


Display with metric or nautical units.
time (UTC)temp
F
wind
direction
speed
MPH
gust
MPH
rain 1hr
in
rain 24hr
in
rain mn
in
humidity
%
barometer
mb
20260504081030 58 179 1.0 3.0 0.00 0.00 0.02 95 1013.0
20260504045030 55 262 0.0 1.0 0.00 0.00 0.02 94 1011.8
20260504044030 55 262 2.0 4.0 0.00 0.00 0.02 94 1011.8
20260504043029 55 275 4.0 7.0 0.00 0.00 0.02 94 1011.8
20260504042030 55 255 4.0 7.0 0.00 0.00 0.02 94 1011.8
20260504041030 55 252 5.0 7.0 0.00 0.00 0.02 94 1011.8
20260504040029 55 257 6.0 9.0 0.00 0.00 0.02 94 1011.7
20260504035029 56 250 6.0 9.0 0.00 0.00 0.02 94 1011.6
20260504034030 56 256 4.0 7.0 0.00 0.00 0.02 95 1011.7
20260504033030 56 236 3.0 7.0 0.00 0.00 0.02 94 1011.6
20260504032029 56 185 1.0 3.0 0.00 0.00 0.02 94 1011.7
20260504031030 56 162 0.0 3.0 0.00 0.00 0.02 94 1011.7
20260504030030 56 214 2.0 5.0 0.00 0.00 0.02 94 1011.6
20260504025029 56 217 4.0 8.0 0.00 0.00 0.02 94 1011.6
20260504024030 56 222 4.0 9.0 0.00 0.00 0.02 94 1011.6
20260504023030 56 242 4.0 9.0 0.00 0.00 0.02 94 1011.5
20260504022029 56 222 4.0 6.0 0.00 0.00 0.02 94 1011.5
20260504021030 56 209 3.0 5.0 0.00 0.00 0.02 94 1011.5
20260504020030 56 216 3.0 5.0 0.00 0.00 0.02 94 1011.6
20260504015029 56 235 4.0 8.0 0.00 0.00 0.02 94 1011.6
20260504014030 57 240 6.0 10.0 0.00 0.00 0.02 94 1011.6
20260504013029 57 239 6.0 9.0 0.00 0.00 0.02 94 1011.4
20260504012030 57 232 5.0 9.0 0.00 0.00 0.02 94 1011.6
20260504011029 57 222 4.0 7.0 0.00 0.00 0.02 94 1011.5
20260504010030 57 207 4.0 7.0 0.00 0.00 0.02 94 1011.5
20260504005030 57 229 5.0 8.0 0.00 0.00 0.02 94 1011.4
20260504004029 57 240 6.0 10.0 0.00 0.00 0.02 94 1011.4
20260504003029 57 237 7.0 11.0 0.00 0.00 0.02 94 1011.5
20260504002030 57 227 4.0 6.0 0.00 0.00 0.02 94 1011.5
20260504001030 57 229 4.0 8.0 0.00 0.00 0.02 94 1011.5
20260504000029 57 237 7.0 10.0 0.00 0.00 0.02 94 1011.5
20260503235030 57 238 9.0 12.0 0.00 0.00 0.02 94 1011.6
20260503234030 57 245 9.0 12.0 0.00 0.00 0.02 94 1011.4
20260503233029 58 239 6.0 10.0 0.00 0.00 0.02 93 1011.4
20260503232030 58 206 3.0 5.0 0.00 0.00 0.02 93 1011.4
20260503231030 57 227 4.0 8.0 0.00 0.00 0.02 93 1011.4
20260503230030 58 247 6.0 8.0 0.00 0.00 0.02 93 1011.3
20260503225029 58 254 7.0 8.0 0.00 0.00 0.02 93 1011.3
20260503224029 58 271 7.0 10.0 0.00 0.00 0.02 94 1011.3
20260503223030 58 288 5.0 7.0 0.00 0.00 0.01 93 1011.2
20260503222029 58 292 4.0 7.0 0.00 0.00 0.01 93 1011.2
20260503221029 58 274 7.0 9.0 0.00 0.00 0.01 93 1011.1
20260503220029 58 257 9.0 11.0 0.00 0.00 0.32 93 1011.1
20260503215030 59 244 7.0 12.0 0.00 0.00 0.31 93 1011.0
20260503214030 59 217 6.0 10.0 0.00 0.00 0.29 93 1011.0
20260503213030 59 222 5.0 10.0 0.00 0.00 0.28 93 1010.9
20260503212029 59 207 3.0 7.0 0.00 0.00 0.28 92 1010.9
20260503211030 59 196 4.0 7.0 0.00 0.00 0.28 92 1011.0
20260503210029 59 192 2.0 6.0 0.00 0.00 0.24 92 1010.9
20260503205029 59 198 2.0 4.0 0.00 0.00 0.20 92 1010.9
20260503204030 59 183 1.0 3.0 0.00 0.00 0.20 92 1010.9
20260503203030 59 138 0.0 3.0 0.00 0.00 0.20 92 1010.8
20260503202030 59 156 0.0 1.0 0.00 0.00 0.20 92 1010.8
20260503201030 59 156 0.0 3.0 0.00 0.00 0.20 92 1010.7
20260503200029 59 164 0.0 3.0 0.00 0.00 0.20 92 1010.7
20260503195029 59 206 1.0 3.0 0.00 0.00 0.20 92 1010.7
20260503194030 59 153 1.0 3.0 0.00 0.00 0.20 91 1010.6
20260503193029 59 182 1.0 3.0 0.00 0.00 0.20 91 1010.5
20260503192029 59 182 1.0 4.0 0.00 0.00 0.20 92 1010.5
20260503191030 59 178 1.0 5.0 0.00 0.00 0.20 92 1010.4
20260503190030 59 195 3.0 7.0 0.00 0.00 0.20 92 1010.5
20260503185030 59 196 2.0 6.0 0.00 0.00 0.20 92 1010.3
20260503184030 59 192 3.0 7.0 0.00 0.00 0.20 92 1010.2
20260503183029 59 192 2.0 7.0 0.00 0.00 0.20 92 1010.0
20260503182030 59 209 3.0 7.0 0.00 0.00 0.20 92 1010.0
20260503181031 59 197 2.0 7.0 0.00 0.00 0.20 92 1009.9
20260503180029 59 195 2.0 5.0 0.00 0.00 0.20 93 1009.8
20260503175029 59 193 2.0 5.0 0.00 0.00 0.20 93 1009.8
20260503174030 59 195 3.0 10.0 0.00 0.00 0.20 93 1009.7
20260503173030 59 199 3.0 7.0 0.00 0.00 0.20 93 1009.8
20260503172030 59 203 2.0 6.0 0.00 0.00 0.20 93 1009.7
20260503171029 59 206 2.0 7.0 0.00 0.00 0.20 94 1009.7
20260503131029 59 245 9.0 11.0 0.00 0.00 0.15 93 1010.3